Regional Weather Roundup
Issued by NWS

Home | Current Version | Previous Version | Graphics & Text | Print | Product List | Glossary On
Versions: 1 2 3 4 5 6 7 8 9 10 11 12 13 14 15 16 17 18 19 20 21 22 23 24 25 26 27 28 29 30 31 32 33 34 35 36 37 38 39 40 41 42 43 44 45 46 47 48 49 50
000
ASUS45 KBOI 291510
RWRID

IDAHO REGIONAL WEATHER ROUNDUP
NATIONAL WEATHER SERVICE BOISE ID
900 AM MDT FRI JUL 29 2016

NOTE: "FAIR" INDICATES FEW OR NO CLOUDS BELOW 12000 FEET
WITH NO SIGNIFICANT WEATHER AND/OR OBSTRUCTIONS TO VISIBILITY

IDZ012-014-291600-
SOUTHWEST IDAHO


CITY           SKY/WX    TMP DP  RH WIND       PRES   REMARKS
BOISE          SUNNY     77  42  28 CALM      30.00R HAZE
CALDWELL       SUNNY     73  54  51 CALM      29.99R
MOUNTAIN HOME  SUNNY     81  45  28 W7        30.00R
$$

IDZ016-017-291600-
SOUTHCENTRAL IDAHO


CITY           SKY/WX    TMP DP  RH WIND       PRES   REMARKS
BURLEY         SUNNY     67  50  54 E3        30.07R
JEROME         SUNNY     72  41  32 S6        30.08R
TWIN FALLS     SUNNY     79  35  20 SW8       30.08R
$$

IDZ019>023-291600-
SOUTHEAST IDAHO


CITY           SKY/WX    TMP DP  RH WIND       PRES   REMARKS
IDAHO FALLS    SUNNY     62  48  60 CALM      30.12R
POCATELLO      SUNNY     73  46  38 W7        30.11R
REXBURG        SUNNY     61  47  59 CALM      30.13R
$$

IDZ006-010-011-018-031-032-291600-
CENTRAL IDAHO MOUNTAINS


CITY           SKY/WX    TMP DP  RH WIND       PRES   REMARKS
MCCALL         SUNNY     64  45  49 CALM      30.16R
HAILEY         SUNNY     66  37  34 NW9       30.17S
STANLEY          N/A     54  36  50 E3        30.28S
SALMON         SUNNY     63  45  51 CALM      30.11S
CHALLIS        SUNNY     66  41  40 CALM      30.17S
$$

IDZ002-004-006-007-026-291600-
NORTHERN IDAHO


CITY           SKY/WX    TMP DP  RH WIND       PRES   REMARKS
LEWISTON       SUNNY     76  54  46 E6        29.97R
LOWELL           N/A     63  56  78 N3        30.03F
COEUR D`ALENE  SUNNY     70  55  60 NE10      30.00S
MULLAN PASS    SUNNY     69  43  38 CALM      30.23R
$$



USA.gov is the U.S. government's official web portal to all federal, state and local government web resources and services.